sat.trackr.live / text

‹ back to catalog

LANDSAT 9

NORAD 49260 · 2021-088A

PAYLOAD ACTIVE UNKNOWN

§ Identity

Operator
Country
US
Launch date
2021-09-27
Launch site
AFWTR
Launch vehicle
Mass (kg)
RCS (m²)

Purposes: earth_obs

External: N2YO · Heavens-Above · Gunter

§ Orbital elements

Epoch: 2026-09-13T03:54:09.446112Z

Period
98.83 min
Inclination
98.2205°
Eccentricity
0.0001487
Mean motion
14.57110276 rev/d
Perigee alt
701.5 km
Apogee alt
703.6 km
Semi-major
7,080.7 km
B*
6.0124e-5
RAAN
325.2396°
Arg perigee
100.1911°
Mean anomaly
259.9455°
Rev number
26,381

§ Raw data

LANDSAT 91 49260U 21088A   26256.16260933  .00000225  00000+0  60124-4 0  99962 49260  98.2205 325.2396 0001487 100.1911 259.9455 14.57110276263815

JSON: /api/v1/satellites/49260 · /tle

For live sub-satellite position, see the globe view (requires WebGL).

§ Visibility from observer

Set your observer location to see the next 7 days of passes ≥ 10°. The values pass through the URL so the page stays shareable.

No JS? Fill the form by hand. The geolocation button needs JavaScript.

§ Radio — SatNOGS DB

ModeDescriptionDownlinkUplink
FM S-band telemetry 2.282 GHz

1 transmitter · refreshed weekly from db.satnogs.org